Year,Month,Day,Hour,Minute,Value (Times are PST for temperature in C)
2007,09,19,00,00,9.80
2007,09,19,00,01,9.80
2007,09,19,00,02,9.80
2007,09,19,00,03,9.80
2007,09,19,00,04,9.70
2007,09,19,00,05,9.70
2007,09,19,00,06,9.70
2007,09,19,00,07,9.70
2007,09,19,00,08,9.70
2007,09,19,00,09,9.70
2007,09,19,00,10,9.70
2007,09,19,00,11,9.70
2007,09,19,00,12,9.70
2007,09,19,00,13,9.70
2007,09,19,00,14,9.60
2007,09,19,00,15,9.60
2007,09,19,00,16,9.60
2007,09,19,00,17,9.60
2007,09,19,00,18,9.60
2007,09,19,00,19,9.60
2007,09,19,00,20,9.60
2007,09,19,00,21,9.50
2007,09,19,00,22,9.50
2007,09,19,00,23,9.50
2007,09,19,00,24,9.50
2007,09,19,00,25,9.50
2007,09,19,00,26,9.50
2007,09,19,00,27,9.50
2007,09,19,00,28,9.50
2007,09,19,00,29,9.50
2007,09,19,00,30,9.40
2007,09,19,00,31,9.40
2007,09,19,00,32,9.40
2007,09,19,00,33,9.40
2007,09,19,00,34,9.40
2007,09,19,00,35,9.30
2007,09,19,00,36,9.30
2007,09,19,00,37,9.30
2007,09,19,00,38,9.30
2007,09,19,00,39,9.30
2007,09,19,00,40,9.30
2007,09,19,00,41,9.20
2007,09,19,00,42,9.20
2007,09,19,00,43,9.20
2007,09,19,00,44,9.20
2007,09,19,00,45,9.20
2007,09,19,00,46,9.20
2007,09,19,00,47,9.20
2007,09,19,00,48,9.20
2007,09,19,00,49,9.20
2007,09,19,00,50,9.20
2007,09,19,00,51,9.20
2007,09,19,00,52,9.20
2007,09,19,00,53,9.20
2007,09,19,00,54,9.20
2007,09,19,00,55,9.20
2007,09,19,00,56,9.20
2007,09,19,00,57,9.20
2007,09,19,00,58,9.20
2007,09,19,00,59,9.20
2007,09,19,01,00,9.10
2007,09,19,01,01,9.10
2007,09,19,01,02,9.10
2007,09,19,01,03,9.10
2007,09,19,01,04,9.10
2007,09,19,01,05,9.00
2007,09,19,01,06,9.00
2007,09,19,01,07,9.00
2007,09,19,01,08,9.00
2007,09,19,01,09,8.90
2007,09,19,01,10,8.90
2007,09,19,01,11,8.80
2007,09,19,01,12,8.80
2007,09,19,01,13,8.80
2007,09,19,01,14,8.70
2007,09,19,01,15,8.70
2007,09,19,01,16,8.70
2007,09,19,01,17,8.70
2007,09,19,01,18,8.60
2007,09,19,01,19,8.60
2007,09,19,01,20,8.60
2007,09,19,01,21,8.50
2007,09,19,01,22,8.50
2007,09,19,01,23,8.40
2007,09,19,01,24,8.40
2007,09,19,01,25,8.40
2007,09,19,01,26,8.30
2007,09,19,01,27,8.30
2007,09,19,01,28,8.20
2007,09,19,01,29,8.20
2007,09,19,01,30,8.20
2007,09,19,01,31,8.20
2007,09,19,01,32,8.20
2007,09,19,01,33,8.20
2007,09,19,01,34,8.20
2007,09,19,01,35,8.10
2007,09,19,01,36,8.10
2007,09,19,01,37,8.10
2007,09,19,01,38,8.10
2007,09,19,01,39,8.00
2007,09,19,01,40,8.00
2007,09,19,01,41,8.00
2007,09,19,01,42,8.00
2007,09,19,01,43,8.00
2007,09,19,01,44,7.90
2007,09,19,01,45,7.90
2007,09,19,01,46,7.90
2007,09,19,01,47,7.90
2007,09,19,01,48,7.90
2007,09,19,01,49,7.90
2007,09,19,01,50,7.80
2007,09,19,01,51,7.80
2007,09,19,01,52,7.80
2007,09,19,01,53,7.80
2007,09,19,01,54,7.80
2007,09,19,01,55,7.80
2007,09,19,01,56,7.80
2007,09,19,01,57,7.80
2007,09,19,01,58,7.80
2007,09,19,01,59,7.80
2007,09,19,02,00,7.80
2007,09,19,02,01,7.80
2007,09,19,02,02,7.80
2007,09,19,02,03,7.70
2007,09,19,02,04,7.70
2007,09,19,02,05,7.70
2007,09,19,02,06,7.70
2007,09,19,02,07,7.70
2007,09,19,02,08,7.70
2007,09,19,02,09,7.70
2007,09,19,02,10,7.70
2007,09,19,02,11,7.70
2007,09,19,02,12,7.70
2007,09,19,02,13,7.70
2007,09,19,02,14,7.70
2007,09,19,02,15,7.70
2007,09,19,02,16,7.70
2007,09,19,02,17,7.60
2007,09,19,02,18,7.60
2007,09,19,02,19,7.60
2007,09,19,02,20,7.60
2007,09,19,02,21,7.60
2007,09,19,02,22,7.60
2007,09,19,02,23,7.50
2007,09,19,02,24,7.50
2007,09,19,02,25,7.50
2007,09,19,02,26,7.50
2007,09,19,02,27,7.50
2007,09,19,02,28,7.50
2007,09,19,02,29,7.50
2007,09,19,02,30,7.50
2007,09,19,02,31,7.40
2007,09,19,02,32,7.40
2007,09,19,02,33,7.40
2007,09,19,02,34,7.40
2007,09,19,02,35,7.40
2007,09,19,02,36,7.40
2007,09,19,02,37,7.40
2007,09,19,02,38,7.40
2007,09,19,02,39,7.40
2007,09,19,02,40,7.30
2007,09,19,02,41,7.30
2007,09,19,02,42,7.30
2007,09,19,02,43,7.30
2007,09,19,02,44,7.30
2007,09,19,02,45,7.30
2007,09,19,02,46,7.30
2007,09,19,02,47,7.30
2007,09,19,02,48,7.30
2007,09,19,02,49,7.30
2007,09,19,02,50,7.30
2007,09,19,02,51,7.30
2007,09,19,02,52,7.20
2007,09,19,02,53,7.20
2007,09,19,02,54,7.20
2007,09,19,02,55,7.20
2007,09,19,02,56,7.30
2007,09,19,02,57,7.30
2007,09,19,02,58,7.30
2007,09,19,02,59,7.20
2007,09,19,03,00,7.20
2007,09,19,03,01,7.20
2007,09,19,03,02,7.20
2007,09,19,03,03,7.20
2007,09,19,03,04,7.20
2007,09,19,03,05,7.20
2007,09,19,03,06,7.20
2007,09,19,03,07,7.20
2007,09,19,03,08,7.20
2007,09,19,03,09,7.10
2007,09,19,03,10,7.10
2007,09,19,03,11,7.10
2007,09,19,03,12,7.10
2007,09,19,03,13,7.10
2007,09,19,03,14,7.10
2007,09,19,03,15,7.10
2007,09,19,03,16,7.10
2007,09,19,03,17,7.10
2007,09,19,03,18,7.10
2007,09,19,03,19,7.10
2007,09,19,03,20,7.10
2007,09,19,03,21,7.00
2007,09,19,03,22,7.00
2007,09,19,03,23,7.00
2007,09,19,03,24,7.00
2007,09,19,03,25,7.00
2007,09,19,03,26,7.00
2007,09,19,03,27,7.00
2007,09,19,03,28,7.00
2007,09,19,03,29,6.90
2007,09,19,03,30,6.90
2007,09,19,03,31,6.90
2007,09,19,03,32,6.90
2007,09,19,03,33,6.90
2007,09,19,03,34,6.80
2007,09,19,03,35,6.80
2007,09,19,03,36,6.80
2007,09,19,03,37,6.80
2007,09,19,03,38,6.80
2007,09,19,03,39,6.80
2007,09,19,03,40,6.80
2007,09,19,03,41,6.80
2007,09,19,03,42,6.80
2007,09,19,03,43,6.80
2007,09,19,03,44,6.80
2007,09,19,03,45,6.80
2007,09,19,03,46,6.80
2007,09,19,03,47,6.80
2007,09,19,03,48,6.80
2007,09,19,03,49,6.80
2007,09,19,03,50,6.70
2007,09,19,03,51,6.70
2007,09,19,03,52,6.70
2007,09,19,03,53,6.70
2007,09,19,03,54,6.70
2007,09,19,03,55,6.70
2007,09,19,03,56,6.70
2007,09,19,03,57,6.70
2007,09,19,03,58,6.70
2007,09,19,03,59,6.70
2007,09,19,04,00,6.70
2007,09,19,04,01,6.70
2007,09,19,04,02,6.70
2007,09,19,04,03,6.60
2007,09,19,04,04,6.60
2007,09,19,04,05,6.60
2007,09,19,04,06,6.60
2007,09,19,04,07,6.40
2007,09,19,04,08,6.40
2007,09,19,04,09,6.40
2007,09,19,04,10,6.40
2007,09,19,04,11,6.40
2007,09,19,04,12,6.30
2007,09,19,04,13,6.30
2007,09,19,04,14,6.30
2007,09,19,04,15,6.30
2007,09,19,04,16,6.30
2007,09,19,04,17,6.30
2007,09,19,04,18,6.20
2007,09,19,04,19,6.20
2007,09,19,04,20,6.20
2007,09,19,04,21,6.20
2007,09,19,04,22,6.20
2007,09,19,04,23,6.20
2007,09,19,04,24,6.20
2007,09,19,04,25,6.20
2007,09,19,04,26,6.20
2007,09,19,04,27,6.10
2007,09,19,04,28,6.10
2007,09,19,04,29,6.10
2007,09,19,04,30,6.10
2007,09,19,04,31,6.10
2007,09,19,04,32,6.10
2007,09,19,04,33,6.10
2007,09,19,04,34,6.10
2007,09,19,04,35,6.10
2007,09,19,04,36,6.10
2007,09,19,04,37,6.10
2007,09,19,04,38,6.10
2007,09,19,04,39,6.10
2007,09,19,04,40,6.00
2007,09,19,04,41,6.00
2007,09,19,04,42,6.00
2007,09,19,04,43,6.00
2007,09,19,04,44,6.00
2007,09,19,04,45,6.00
2007,09,19,04,46,5.90
2007,09,19,04,47,5.90
2007,09,19,04,48,5.90
2007,09,19,04,49,5.90
2007,09,19,04,50,5.90
2007,09,19,04,51,5.90
2007,09,19,04,52,5.90
2007,09,19,04,53,5.90
2007,09,19,04,54,5.90
2007,09,19,04,55,5.90
2007,09,19,04,56,5.90
2007,09,19,04,57,5.80
2007,09,19,04,58,5.80
2007,09,19,04,59,5.80
2007,09,19,05,00,5.70
2007,09,19,05,01,5.70
2007,09,19,05,02,5.70
2007,09,19,05,03,5.70
2007,09,19,05,04,5.70
2007,09,19,05,05,5.70
2007,09,19,05,06,5.70
2007,09,19,05,07,5.70
2007,09,19,05,08,5.70
2007,09,19,05,09,5.70
2007,09,19,05,10,5.60
2007,09,19,05,11,5.60
2007,09,19,05,12,5.60
2007,09,19,05,13,5.60
2007,09,19,05,14,5.50
2007,09,19,05,15,5.50
2007,09,19,05,16,5.50
2007,09,19,05,17,5.50
2007,09,19,05,18,5.40
2007,09,19,05,19,5.40
2007,09,19,05,20,5.40
2007,09,19,05,21,5.40
2007,09,19,05,22,5.40
2007,09,19,05,23,5.40
2007,09,19,05,24,5.40
2007,09,19,05,25,5.40
2007,09,19,05,26,5.40
2007,09,19,05,27,5.40
2007,09,19,05,28,5.40
2007,09,19,05,29,5.40
2007,09,19,05,30,5.40
2007,09,19,05,31,5.40
2007,09,19,05,32,5.40
2007,09,19,05,33,5.40
2007,09,19,05,34,5.40
2007,09,19,05,35,5.40
2007,09,19,05,36,5.40
2007,09,19,05,37,5.40
2007,09,19,05,38,5.40
2007,09,19,05,39,5.40
2007,09,19,05,40,5.40
2007,09,19,05,41,5.40
2007,09,19,05,42,5.40
2007,09,19,05,43,5.40
2007,09,19,05,44,5.30
2007,09,19,05,45,5.30
2007,09,19,05,46,5.30
2007,09,19,05,47,5.30
2007,09,19,05,48,5.30
2007,09,19,05,49,5.30
2007,09,19,05,50,5.30
2007,09,19,05,51,5.30
2007,09,19,05,52,5.30
2007,09,19,05,53,5.30
2007,09,19,05,54,5.30
2007,09,19,05,55,5.30
2007,09,19,05,56,5.30
2007,09,19,05,57,5.30
2007,09,19,05,58,5.30
2007,09,19,05,59,5.30
2007,09,19,06,00,5.30
2007,09,19,06,01,5.30
2007,09,19,06,02,5.30
2007,09,19,06,03,5.30
2007,09,19,06,04,5.30
2007,09,19,06,05,5.30
2007,09,19,06,06,5.30
2007,09,19,06,07,5.30
2007,09,19,06,08,5.30
2007,09,19,06,09,5.30
2007,09,19,06,10,5.30
2007,09,19,06,11,5.30
2007,09,19,06,12,5.30
2007,09,19,06,13,5.30
2007,09,19,06,14,5.30
2007,09,19,06,15,5.30
2007,09,19,06,16,5.30
2007,09,19,06,17,5.20
2007,09,19,06,18,5.20
2007,09,19,06,19,5.20
2007,09,19,06,20,5.20
2007,09,19,06,21,5.20
2007,09,19,06,22,5.10
2007,09,19,06,23,5.10
2007,09,19,06,24,5.10
2007,09,19,06,25,5.10
2007,09,19,06,26,5.10
2007,09,19,06,27,5.00
2007,09,19,06,28,4.90
2007,09,19,06,29,4.90
2007,09,19,06,30,4.90
2007,09,19,06,31,4.90
2007,09,19,06,32,4.90
2007,09,19,06,33,4.90
2007,09,19,06,34,4.90
2007,09,19,06,35,4.90
2007,09,19,06,36,4.90
2007,09,19,06,37,4.90
2007,09,19,06,38,4.90
2007,09,19,06,39,4.90
2007,09,19,06,40,4.90
2007,09,19,06,41,4.90
2007,09,19,06,42,4.90
2007,09,19,06,43,5.00
2007,09,19,06,44,4.90
2007,09,19,06,45,4.90
2007,09,19,06,46,4.90
2007,09,19,06,47,4.90
2007,09,19,06,48,4.90
2007,09,19,06,49,4.90
2007,09,19,06,50,4.90
2007,09,19,06,51,4.80
2007,09,19,06,52,4.80
2007,09,19,06,53,4.80
2007,09,19,06,54,4.80
2007,09,19,06,55,4.80
2007,09,19,06,56,4.80
2007,09,19,06,57,4.80
2007,09,19,06,58,4.80
2007,09,19,06,59,4.80
2007,09,19,07,00,4.80
2007,09,19,07,01,4.80
2007,09,19,07,02,4.80
2007,09,19,07,03,4.80
2007,09,19,07,04,4.80
2007,09,19,07,05,4.90
2007,09,19,07,06,4.90
2007,09,19,07,07,4.90
2007,09,19,07,08,4.90
2007,09,19,07,09,4.90
2007,09,19,07,10,4.90
2007,09,19,07,11,4.90
2007,09,19,07,12,4.90
2007,09,19,07,13,4.90
2007,09,19,07,14,4.90
2007,09,19,07,15,4.90
2007,09,19,07,16,4.90
2007,09,19,07,17,4.90
2007,09,19,07,18,4.90
2007,09,19,07,19,4.90
2007,09,19,07,20,4.90
2007,09,19,07,21,4.90
2007,09,19,07,22,4.90
2007,09,19,07,23,4.90
2007,09,19,07,24,4.90
2007,09,19,07,25,4.90
2007,09,19,07,26,4.90
2007,09,19,07,27,4.90
2007,09,19,07,28,5.00
2007,09,19,07,29,5.10
2007,09,19,07,30,5.10
2007,09,19,07,31,5.10
2007,09,19,07,32,5.10
2007,09,19,07,33,5.10
2007,09,19,07,34,5.10
2007,09,19,07,35,5.10
2007,09,19,07,36,5.10
2007,09,19,07,37,5.10
2007,09,19,07,38,5.10
2007,09,19,07,39,5.10
2007,09,19,07,40,5.10
2007,09,19,07,41,5.20
2007,09,19,07,42,5.20
2007,09,19,07,43,5.30
2007,09,19,07,44,5.30
2007,09,19,07,45,5.30
2007,09,19,07,46,5.50
2007,09,19,07,47,5.50
2007,09,19,07,48,5.60
2007,09,19,07,49,5.60
2007,09,19,07,50,5.70
2007,09,19,07,51,5.70
2007,09,19,07,52,5.80
2007,09,19,07,53,5.90
2007,09,19,07,54,6.00
2007,09,19,07,55,6.10
2007,09,19,07,56,6.20
2007,09,19,07,57,6.20
2007,09,19,07,58,6.30
2007,09,19,07,59,6.40
2007,09,19,08,00,6.50
2007,09,19,08,01,6.60
2007,09,19,08,02,6.60
2007,09,19,08,03,6.70
2007,09,19,08,04,6.70
2007,09,19,08,05,6.80
2007,09,19,08,06,6.80
2007,09,19,08,07,6.80
2007,09,19,08,08,6.80
2007,09,19,08,09,6.90
2007,09,19,08,10,6.90
2007,09,19,08,11,7.00
2007,09,19,08,12,7.10
2007,09,19,08,13,7.20
2007,09,19,08,14,7.30
2007,09,19,08,15,7.40
2007,09,19,08,16,7.50
2007,09,19,08,17,7.60
2007,09,19,08,18,7.70
2007,09,19,08,19,7.70
2007,09,19,08,20,7.80
2007,09,19,08,21,7.80
2007,09,19,08,22,7.90
2007,09,19,08,23,7.90
2007,09,19,08,24,8.00
2007,09,19,08,25,8.00
2007,09,19,08,26,8.10
2007,09,19,08,27,8.20
2007,09,19,08,28,8.20
2007,09,19,08,29,8.20
2007,09,19,08,30,8.30
2007,09,19,08,31,8.40
2007,09,19,08,32,8.50
2007,09,19,08,33,8.60
2007,09,19,08,34,8.70
2007,09,19,08,35,8.80
2007,09,19,08,36,8.90
2007,09,19,08,37,9.00
2007,09,19,08,38,9.10
2007,09,19,08,39,9.20
2007,09,19,08,40,9.30
2007,09,19,08,41,9.40
2007,09,19,08,42,9.50
2007,09,19,08,43,9.50
2007,09,19,08,44,9.60
2007,09,19,08,45,9.70
2007,09,19,08,46,9.70
2007,09,19,08,47,9.80
2007,09,19,08,48,9.90
2007,09,19,08,49,10.00
2007,09,19,08,50,10.10
2007,09,19,08,51,10.20
2007,09,19,08,52,10.30
2007,09,19,08,53,10.40
2007,09,19,08,54,10.40
2007,09,19,08,55,10.40
2007,09,19,08,56,10.50
2007,09,19,08,57,10.60
2007,09,19,08,58,10.60
2007,09,19,08,59,10.70
2007,09,19,09,00,10.80
2007,09,19,09,01,10.90
2007,09,19,09,02,11.00
2007,09,19,09,03,11.20
2007,09,19,09,04,11.30
2007,09,19,09,05,11.40
2007,09,19,09,06,11.50
2007,09,19,09,07,11.60
2007,09,19,09,08,11.60
2007,09,19,09,09,11.70
2007,09,19,09,10,11.80
2007,09,19,09,11,11.90
2007,09,19,09,12,12.00
2007,09,19,09,13,12.10
2007,09,19,09,14,12.20
2007,09,19,09,15,12.30
2007,09,19,09,16,12.40
2007,09,19,09,17,12.40
2007,09,19,09,18,12.50
2007,09,19,09,19,12.60
2007,09,19,09,20,12.60
2007,09,19,09,21,12.70
2007,09,19,09,22,12.70
2007,09,19,09,23,12.70
2007,09,19,09,24,12.80
2007,09,19,09,25,12.80
2007,09,19,09,26,12.90
2007,09,19,09,27,12.90
2007,09,19,09,28,13.00
2007,09,19,09,29,13.10
2007,09,19,09,30,13.10
2007,09,19,09,31,13.20
2007,09,19,09,32,13.30
2007,09,19,09,33,13.30
2007,09,19,09,34,13.30
2007,09,19,09,35,13.30
2007,09,19,09,36,13.40
2007,09,19,09,37,13.50
2007,09,19,09,38,13.50
2007,09,19,09,39,13.60
2007,09,19,09,40,13.60
2007,09,19,09,41,13.60
2007,09,19,09,42,13.70
2007,09,19,09,43,13.70
2007,09,19,09,44,13.70
2007,09,19,09,45,13.80
2007,09,19,09,46,13.90
2007,09,19,09,47,13.90
2007,09,19,09,48,13.90
2007,09,19,09,49,14.00
2007,09,19,09,50,14.00
2007,09,19,09,51,14.10
2007,09,19,09,52,14.10
2007,09,19,09,53,14.10
2007,09,19,09,54,14.20
2007,09,19,09,55,14.20
2007,09,19,09,56,14.20
2007,09,19,09,57,14.20
2007,09,19,09,58,14.20
2007,09,19,09,59,14.20
2007,09,19,10,00,14.20
2007,09,19,10,01,14.20
2007,09,19,10,02,14.20
2007,09,19,10,03,14.20
2007,09,19,10,04,14.30
2007,09,19,10,05,14.40
2007,09,19,10,06,14.40
2007,09,19,10,07,14.50
2007,09,19,10,08,14.50
2007,09,19,10,09,14.60
2007,09,19,10,10,14.60
2007,09,19,10,11,14.70
2007,09,19,10,12,14.70
2007,09,19,10,13,14.80
2007,09,19,10,14,14.80
2007,09,19,10,15,14.80
2007,09,19,10,16,14.80
2007,09,19,10,17,14.90
2007,09,19,10,18,14.90
2007,09,19,10,19,14.90
2007,09,19,10,20,15.00
2007,09,19,10,21,15.00
2007,09,19,10,22,15.10
2007,09,19,10,23,15.10
2007,09,19,10,24,15.10
2007,09,19,10,25,15.10
2007,09,19,10,26,15.20
2007,09,19,10,27,15.20
2007,09,19,10,28,15.30
2007,09,19,10,29,15.30
2007,09,19,10,30,15.40
2007,09,19,10,31,15.50
2007,09,19,10,32,15.50
2007,09,19,10,33,15.50
2007,09,19,10,34,15.50
2007,09,19,10,35,15.50
2007,09,19,10,36,15.50
2007,09,19,10,37,15.60
2007,09,19,10,38,15.60
2007,09,19,10,39,15.60
2007,09,19,10,40,15.60
2007,09,19,10,41,15.60
2007,09,19,10,42,15.70
2007,09,19,10,43,15.80
2007,09,19,10,44,15.80
2007,09,19,10,45,15.80
2007,09,19,10,46,15.80
2007,09,19,10,47,15.80
2007,09,19,10,48,15.80
2007,09,19,10,49,15.80
2007,09,19,10,50,15.90
2007,09,19,10,51,16.00
2007,09,19,10,52,16.10
2007,09,19,10,53,16.10
2007,09,19,10,54,16.10
2007,09,19,10,55,16.10
2007,09,19,10,56,16.10
2007,09,19,10,57,16.10
2007,09,19,10,58,16.10
2007,09,19,10,59,16.10
2007,09,19,11,00,16.10
2007,09,19,11,01,16.10
2007,09,19,11,02,16.20
2007,09,19,11,03,16.20
2007,09,19,11,04,16.30
2007,09,19,11,05,16.30
2007,09,19,11,06,16.40
2007,09,19,11,07,16.40
2007,09,19,11,08,16.40
2007,09,19,11,09,16.40
2007,09,19,11,10,16.40
2007,09,19,11,11,16.40
2007,09,19,11,12,16.60
2007,09,19,11,13,16.60
2007,09,19,11,14,16.70
2007,09,19,11,15,16.50
2007,09,19,11,16,16.40
2007,09,19,11,17,16.40
2007,09,19,11,18,16.40
2007,09,19,11,19,16.40
2007,09,19,11,20,16.50
2007,09,19,11,21,16.60
2007,09,19,11,22,16.60
2007,09,19,11,23,16.70
2007,09,19,11,24,16.70
2007,09,19,11,25,16.70
2007,09,19,11,26,16.70
2007,09,19,11,27,16.70
2007,09,19,11,28,16.70
2007,09,19,11,29,16.70
2007,09,19,11,30,16.70
2007,09,19,11,31,16.70
2007,09,19,11,32,16.80
2007,09,19,11,33,16.90
2007,09,19,11,34,16.90
2007,09,19,11,35,16.90
2007,09,19,11,36,17.00
2007,09,19,11,37,16.90
2007,09,19,11,38,16.80
2007,09,19,11,39,16.80
2007,09,19,11,40,16.80
2007,09,19,11,41,16.90
2007,09,19,11,42,16.90
2007,09,19,11,43,17.00
2007,09,19,11,44,17.00
2007,09,19,11,45,17.10
2007,09,19,11,46,17.10
2007,09,19,11,47,17.10
2007,09,19,11,48,17.10
2007,09,19,11,49,17.20
2007,09,19,11,50,17.20
2007,09,19,11,51,17.20
2007,09,19,11,52,17.20
2007,09,19,11,53,17.20
2007,09,19,11,54,17.30
2007,09,19,11,55,17.30
2007,09,19,11,56,17.30
2007,09,19,11,57,17.30
2007,09,19,11,58,17.30
2007,09,19,11,59,17.30
2007,09,19,12,00,17.40
2007,09,19,12,01,17.40
2007,09,19,12,02,17.40
2007,09,19,12,03,17.40
2007,09,19,12,04,17.50
2007,09,19,12,05,17.50
2007,09,19,12,06,17.60
2007,09,19,12,07,17.60
2007,09,19,12,08,17.60
2007,09,19,12,09,17.70
2007,09,19,12,10,17.70
2007,09,19,12,11,17.80
2007,09,19,12,12,17.80
2007,09,19,12,13,17.80
2007,09,19,12,14,17.80
2007,09,19,12,15,17.80
2007,09,19,12,16,17.80
2007,09,19,12,17,17.80
2007,09,19,12,18,17.80
2007,09,19,12,19,17.80
2007,09,19,12,20,17.80
2007,09,19,12,21,17.90
2007,09,19,12,22,17.90
2007,09,19,12,23,17.90
2007,09,19,12,24,17.90
2007,09,19,12,25,17.90
2007,09,19,12,26,17.80
2007,09,19,12,27,17.80
2007,09,19,12,28,17.80
2007,09,19,12,29,17.80
2007,09,19,12,30,17.80
2007,09,19,12,31,17.80
2007,09,19,12,32,17.80
2007,09,19,12,33,17.90
2007,09,19,12,34,17.90
2007,09,19,12,35,18.00
2007,09,19,12,36,18.10
2007,09,19,12,37,18.20
2007,09,19,12,38,18.20
2007,09,19,12,39,18.20
2007,09,19,12,40,18.20
2007,09,19,12,41,18.20
2007,09,19,12,42,18.20
2007,09,19,12,43,18.20
2007,09,19,12,44,18.20
2007,09,19,12,45,18.20
2007,09,19,12,46,18.20
2007,09,19,12,47,18.20
2007,09,19,12,48,18.20
2007,09,19,12,49,18.20
2007,09,19,12,50,18.20
2007,09,19,12,51,18.20
2007,09,19,12,52,18.20
2007,09,19,12,53,18.30
2007,09,19,12,54,18.30
2007,09,19,12,55,18.30
2007,09,19,12,56,18.30
2007,09,19,12,57,18.30
2007,09,19,12,58,18.30
2007,09,19,12,59,18.30
2007,09,19,13,00,18.30
2007,09,19,13,01,18.40
2007,09,19,13,02,18.40
2007,09,19,13,03,18.40
2007,09,19,13,04,18.40
2007,09,19,13,05,18.40
2007,09,19,13,06,18.40
2007,09,19,13,07,18.40
2007,09,19,13,08,18.50
2007,09,19,13,09,18.50
2007,09,19,13,10,18.50
2007,09,19,13,11,18.50
2007,09,19,13,12,18.50
2007,09,19,13,13,18.50
2007,09,19,13,14,18.50
2007,09,19,13,15,18.50
2007,09,19,13,16,18.50
2007,09,19,13,17,18.60
2007,09,19,13,18,18.60
2007,09,19,13,19,18.70
2007,09,19,13,20,18.70
2007,09,19,13,21,18.60
2007,09,19,13,22,18.60
2007,09,19,13,23,18.60
2007,09,19,13,24,18.70
2007,09,19,13,25,18.80
2007,09,19,13,26,18.90
2007,09,19,13,27,18.90
2007,09,19,13,28,18.90
2007,09,19,13,29,18.80
2007,09,19,13,30,18.70
2007,09,19,13,31,18.70
2007,09,19,13,32,18.70
2007,09,19,13,33,18.80
2007,09,19,13,34,18.80
2007,09,19,13,35,18.90
2007,09,19,13,36,18.90
2007,09,19,13,37,19.00
2007,09,19,13,38,19.10
2007,09,19,13,39,19.30
2007,09,19,13,40,19.50
2007,09,19,13,41,19.60
2007,09,19,13,42,19.70
2007,09,19,13,43,19.90
2007,09,19,13,44,19.80
2007,09,19,13,45,19.70
2007,09,19,13,46,19.60
2007,09,19,13,47,19.60
2007,09,19,13,48,19.40
2007,09,19,13,49,19.40
2007,09,19,13,50,19.40
2007,09,19,13,51,19.40
2007,09,19,13,52,19.50
2007,09,19,13,53,19.70
2007,09,19,13,54,19.70
2007,09,19,13,55,19.60
2007,09,19,13,56,19.60
2007,09,19,13,57,19.60
2007,09,19,13,58,19.60
2007,09,19,13,59,19.70
2007,09,19,14,00,19.80
2007,09,19,14,01,19.80
2007,09,19,14,02,19.70
2007,09,19,14,03,19.60
2007,09,19,14,04,19.50
2007,09,19,14,05,19.50
2007,09,19,14,06,19.50
2007,09,19,14,07,19.50
2007,09,19,14,08,19.60
2007,09,19,14,09,19.60
2007,09,19,14,10,19.60
2007,09,19,14,11,19.60
2007,09,19,14,12,19.50
2007,09,19,14,13,19.60
2007,09,19,14,14,19.60
2007,09,19,14,15,19.70
2007,09,19,14,16,19.60
2007,09,19,14,17,19.60
2007,09,19,14,18,19.60
2007,09,19,14,19,19.60
2007,09,19,14,20,19.60
2007,09,19,14,21,19.60
2007,09,19,14,22,19.50
2007,09,19,14,23,19.50
2007,09,19,14,24,19.60
2007,09,19,14,25,19.60
2007,09,19,14,26,19.60
2007,09,19,14,27,19.50
2007,09,19,14,28,19.60
2007,09,19,14,29,19.50
2007,09,19,14,30,19.50
2007,09,19,14,31,19.60
2007,09,19,14,32,19.70
2007,09,19,14,33,19.70
2007,09,19,14,34,19.60
2007,09,19,14,35,19.60
2007,09,19,14,36,19.60
2007,09,19,14,37,19.70
2007,09,19,14,38,19.70
2007,09,19,14,39,19.70
2007,09,19,14,40,19.70
2007,09,19,14,41,19.60
2007,09,19,14,42,19.60
2007,09,19,14,43,19.60
2007,09,19,14,44,19.50
2007,09,19,14,45,19.60
2007,09,19,14,46,19.60
2007,09,19,14,47,19.60
2007,09,19,14,48,19.60
2007,09,19,14,49,19.60
2007,09,19,14,50,19.60
2007,09,19,14,51,19.60
2007,09,19,14,52,19.70
2007,09,19,14,53,19.70
2007,09,19,14,54,19.70
2007,09,19,14,55,19.80
2007,09,19,14,56,19.80
2007,09,19,14,57,19.90
2007,09,19,14,58,19.90
2007,09,19,14,59,20.10
2007,09,19,15,00,20.20
2007,09,19,15,01,20.20
2007,09,19,15,02,20.20
2007,09,19,15,03,20.20
2007,09,19,15,04,20.20
2007,09,19,15,05,20.30
2007,09,19,15,06,20.40
2007,09,19,15,07,20.60
2007,09,19,15,08,20.70
2007,09,19,15,09,20.70
2007,09,19,15,10,20.60
2007,09,19,15,11,20.50
2007,09,19,15,12,20.30
2007,09,19,15,13,20.10
2007,09,19,15,14,20.00
2007,09,19,15,15,19.90
2007,09,19,15,16,19.80
2007,09,19,15,17,19.80
2007,09,19,15,18,19.80
2007,09,19,15,19,19.80
2007,09,19,15,20,19.90
2007,09,19,15,21,19.80
2007,09,19,15,22,19.70
2007,09,19,15,23,19.70
2007,09,19,15,24,19.70
2007,09,19,15,25,19.70
2007,09,19,15,26,19.80
2007,09,19,15,27,19.80
2007,09,19,15,28,19.90
2007,09,19,15,29,20.00
2007,09,19,15,30,20.10
2007,09,19,15,31,20.20
2007,09,19,15,32,20.20
2007,09,19,15,33,20.20
2007,09,19,15,34,20.20
2007,09,19,15,35,20.20
2007,09,19,15,36,20.10
2007,09,19,15,37,20.10
2007,09,19,15,38,20.10
2007,09,19,15,39,20.20
2007,09,19,15,40,20.20
2007,09,19,15,41,20.20
2007,09,19,15,42,20.10
2007,09,19,15,43,20.00
2007,09,19,15,44,19.90
2007,09,19,15,45,19.90
2007,09,19,15,46,19.90
2007,09,19,15,47,19.90
2007,09,19,15,48,19.90
2007,09,19,15,49,19.90
2007,09,19,15,50,19.80
2007,09,19,15,51,19.80
2007,09,19,15,52,19.80
2007,09,19,15,53,19.80
2007,09,19,15,54,19.80
2007,09,19,15,55,19.70
2007,09,19,15,56,19.80
2007,09,19,15,57,19.80
2007,09,19,15,58,19.70
2007,09,19,15,59,19.70
2007,09,19,16,00,19.70
2007,09,19,16,01,19.70
2007,09,19,16,02,19.70
2007,09,19,16,03,19.80
2007,09,19,16,04,19.90
2007,09,19,16,05,19.90
2007,09,19,16,06,19.90
2007,09,19,16,07,19.90
2007,09,19,16,08,19.90
2007,09,19,16,09,19.90
2007,09,19,16,10,19.80
2007,09,19,16,11,19.80
2007,09,19,16,12,19.80
2007,09,19,16,13,19.90
2007,09,19,16,14,19.90
2007,09,19,16,15,19.90
2007,09,19,16,16,19.80
2007,09,19,16,17,19.80
2007,09,19,16,18,19.80
2007,09,19,16,19,19.80
2007,09,19,16,20,19.70
2007,09,19,16,21,19.70
2007,09,19,16,22,19.60
2007,09,19,16,23,19.50
2007,09,19,16,24,19.40
2007,09,19,16,25,19.20
2007,09,19,16,26,19.10
2007,09,19,16,27,19.10
2007,09,19,16,28,19.10
2007,09,19,16,29,19.10
2007,09,19,16,30,19.10
2007,09,19,16,31,19.10
2007,09,19,16,32,19.10
2007,09,19,16,33,19.20
2007,09,19,16,34,19.20
2007,09,19,16,35,19.30
2007,09,19,16,36,19.30
2007,09,19,16,37,19.40
2007,09,19,16,38,19.40
2007,09,19,16,39,19.50
2007,09,19,16,40,19.50
2007,09,19,16,41,19.50
2007,09,19,16,42,19.60
2007,09,19,16,43,19.60
2007,09,19,16,44,19.60
2007,09,19,16,45,19.50
2007,09,19,16,46,19.60
2007,09,19,16,47,19.50
2007,09,19,16,48,19.50
2007,09,19,16,49,19.50
2007,09,19,16,50,19.40
2007,09,19,16,51,19.40
2007,09,19,16,52,19.40
2007,09,19,16,53,19.40
2007,09,19,16,54,19.40
2007,09,19,16,55,19.30
2007,09,19,16,56,19.30
2007,09,19,16,57,19.30
2007,09,19,16,58,19.40
2007,09,19,16,59,19.40
2007,09,19,17,00,19.40
2007,09,19,17,01,19.40
2007,09,19,17,02,19.40
2007,09,19,17,03,19.30
2007,09,19,17,04,19.30
2007,09,19,17,05,19.30
2007,09,19,17,06,19.30
2007,09,19,17,07,19.30
2007,09,19,17,08,19.30
2007,09,19,17,09,19.30
2007,09,19,17,10,19.30
2007,09,19,17,11,19.30
2007,09,19,17,12,19.40
2007,09,19,17,13,19.40
2007,09,19,17,14,19.40
2007,09,19,17,15,19.40
2007,09,19,17,16,19.40
2007,09,19,17,17,19.40
2007,09,19,17,18,19.40
2007,09,19,17,19,19.40
2007,09,19,17,20,19.40
2007,09,19,17,21,19.40
2007,09,19,17,22,19.40
2007,09,19,17,23,19.30
2007,09,19,17,24,19.30
2007,09,19,17,25,19.30
2007,09,19,17,26,19.20
2007,09,19,17,27,19.20
2007,09,19,17,28,19.30
2007,09,19,17,29,19.30
2007,09,19,17,30,19.30
2007,09,19,17,31,19.30
2007,09,19,17,32,19.30
2007,09,19,17,33,19.30
2007,09,19,17,34,19.30
2007,09,19,17,35,19.30
2007,09,19,17,36,19.30
2007,09,19,17,37,19.30
2007,09,19,17,38,19.30
2007,09,19,17,39,19.30
2007,09,19,17,40,19.20
2007,09,19,17,41,19.10
2007,09,19,17,42,19.10